Regional Weather Roundup
Issued by NWS

Home | Current Version | Previous Version | Text Only | Print | Product List | Glossary On
Versions: 1 2 3 4 5 6 7 8 9 10 11 12 13 14 15 16 17 18 19 20 21 22 23 24 25 26 27 28 29 30 31 32 33 34 35 36 37 38 39 40 41 42 43 44 45 46 47 48 49 50
000
ASUS43 KMPX 032010
RWRMN
WEATHER ROUNDUP FOR MINNESOTA
NATIONAL WEATHER SERVICE TWIN CITIES/CHANHASSEN MN
300 PM CDT THU SEP 03 2015


NOTE: "FAIR" INDICATES FEW OR NO CLOUDS BELOW 12,000 FEET WITH NO
SIGNIFICANT WEATHER AND/OR OBSTRUCTIONS TO VISIBILITY. N/A MEANS
CURRENT SKY AND/OR WEATHER CONDITIONS ARE NOT AVAILABLE.

MNZ060>063-068>070-032100-
   Twin Cities Metro

CITY           SKY/WX    TMP DP  RH WIND       PRES   REMARKS
TWIN CITIES    MOSUNNY   83  72  69 E14       29.88F
ST PAUL        MOSUNNY   83  73  72 SE9       29.89F
CRYSTAL        MOSUNNY   86  72  62 E8        29.87F HX  92
BLAINE         MOSUNNY   84  75  74 E9        29.89F HX  92
LAKEVILLE      MOSUNNY   82  75  78 E10G16    29.88F
EDEN PRAIRIE   MOSUNNY   86  74  67 E12G20    29.87F HX  94
SOUTH ST PAUL  MOSUNNY   83  71  67 E6        29.89F
LAKE ELMO      FAIR      81  72  74 E8        29.91F
$$
MNZ001>005-007-008-013>017-022>024-027-028-032100-
   Northwest Minnesota

CITY           SKY/WX    TMP DP  RH WIND       PRES   REMARKS
BEMIDJI        SUNNY     83  69  62 SE15G21   29.87S
HALLOCK        SUNNY     93  70  46 S24G31    29.71S HX  99
ROSEAU         SUNNY     88  73  62 S14       29.79F HX  96
WARROAD        SUNNY     84  72  65 SE14      29.82S
THIEF RVR FALL SUNNY     90  70  51 SE15      29.78F HX  95
CROOKSTON      SUNNY     90  70  51 S23G30    29.76S HX  95
FOSSTON        SUNNY     90  68  48 SE14G20   29.82F HX  93
DETROIT LAKES  SUNNY     86  70  58 SE14      29.85F HX  90
MOORHEAD       SUNNY     90  72  55 SE18G26   29.77F HX  96
PARK RAPIDS    MOSUNNY   86  69  56 SE16      29.87F HX  90
MAHNOMEN       FAIR      85  71  62 SE14G20   29.82F HX  90
$$
MNZ006-009>011-018-025>026-032100-
   North Central Minnesota

CITY           SKY/WX    TMP DP  RH WIND       PRES   REMARKS
BAUDETTE       SUNNY     85  64  49 SE13G23   29.85F
FLAG ISLAND    SUNNY     75  66  73 S10       29.83F
INTL FALLS     SUNNY     83  64  52 SE12      29.91S
WASKISH        SUNNY     82  66  57 SE12G18   29.87S
BIG FORK       SUNNY     82  63  51 SE12      29.92F
LONGVILLE      SUNNY     82  66  57 SE7       29.90F
GRAND RAPIDS     N/A     79  63  57 SE12      29.93F
CRANE LAKE     SUNNY     81  63  54 SE5       29.96S
ORR            SUNNY     82  59  44 SE6       29.92F
COOK           SUNNY     81  63  54 SE12G17   29.96F
WALKER         FAIR      82  68  64 SE9       29.88F
$$
MNZ012-019>021-037-032100-
   Northeast Minnesota

CITY           SKY/WX    TMP DP  RH WIND       PRES   REMARKS
DULUTH         MOSUNNY   71  65  81 E9        29.98S
ELY            SUNNY     81  57  44 E13       29.98F
HIBBING        SUNNY     78  63  59 SE10      29.96S
EVELETH        SUNNY     77  61  57 SE7       29.98S
DULUTH HARBOR  CLOUDY    61  59  94 NE10      29.98S
TWO HARBORS    SUNNY     77  66  69 E8        29.96F
SILVER BAY     SUNNY     72  61  68 E8        29.98F
GRAND MARAIS     N/A     67  55  65 CALM      30.00F
G MARAIS ARPRT SUNNY     73  46  38 SE8       30.06R
$$
MNZ029>031-032-039>041-046>048-054>057-064-032100-
   West Central Minnesota

CITY           SKY/WX    TMP DP  RH WIND       PRES   REMARKS
FERGUS FALLS   SUNNY     86  72  62 SE14G22   29.80F HX  92
MORRIS         SUNNY     88  73  62 SE17      29.81F HX  96
ALEXANDRIA     SUNNY     84  73  69 SE14      29.88F HX  90
ELBOW LAKE     FAIR      85  74  69 SE14      29.83F HAZE    HX  91
WADENA         SUNNY     84  72  65 SE13      29.87S
GLENWOOD       SUNNY     84  73  70 E13       29.87F HX  91
APPLETON       SUNNY     90  72  55 SE13      29.80F HX  96
BENSON         SUNNY     88  72  58 S9G18     29.83F HX  94
ORTONVILLE     SUNNY     88  72  58 SE13      29.81F HX  94
MADISON        SUNNY     88  72  58 SE12G17   29.81F HX  94
WILLMAR        FAIR      88  75  66 SE13      29.86F HX  97
$$
MNZ033>034-036-042>043-049>051-058-059-032100-
   Central Minnesota

CITY           SKY/WX    TMP DP  RH WIND       PRES   REMARKS
ST CLOUD       MOSUNNY   84  73  69 SE13      29.88F HX  90
SAUK CENTRE    FAIR      83  74  73 E10       29.87F
PAYNESVILLE    MOSUNNY   85  73  67 NE10      29.87F HX  91
AITKIN         SUNNY     82  68  61 SE10      29.91F
PINE RIVER     SUNNY     81  70  69 SE10      29.93S
BRAINERD       MOSUNNY   81  68  64 SE8       29.90F
STAPLES        SUNNY     84  70  61 SE8       29.88F
LONG PRAIRIE   FAIR      82  72  69 E12       29.88F
LITTLE FALLS   MOSUNNY   82  68  61 SE13      29.89F
LITCHFIELD     SUNNY     88  77  70 E10G17    29.86F HX 100
BUFFALO        MOSUNNY   85  71  64 E9        29.88F HX  90
MAPLE LAKE     MOSUNNY   85  76  72 E8        29.88F HX  95
$$
MNZ037-044-045-052-053-032100-
   East Central Minnesota

CITY           SKY/WX    TMP DP  RH WIND       PRES   REMARKS
PRINCETON      MOSUNNY   86  73  66 E9        29.89F HX  93
MORA           PTSUNNY   79  66  65 SE7       29.93S
CAMBRIDGE      MOSUNNY   84  70  61 E6        29.89F
RUSH CITY      SUNNY     82  68  62 E6        29.91F
MOOSE LAKE     SUNNY     77  64  65 E3        29.92F
HINCKLEY       FAIR      81  68  65 E10       29.93S
CLOQUET        MOSUNNY   70  63  78 E8        29.97F
MCGREGOR       SUNNY     79  66  65 SE9       29.93F
$$
MNZ071>073-080-081-089-090-097-098-032100-
   Southwest Minnesota

CITY           SKY/WX    TMP DP  RH WIND       PRES   REMARKS
MONTEVIDEO     SUNNY     91  73  55 S9        29.83F HX 100
GRANITE FALLS  SUNNY     87  73  61 SE8       29.84F HX  94
CANBY          SUNNY     89  74  59 SE9       29.82F HX  98
MARSHALL       SUNNY     90  72  55 SE14      29.83F HX  96
REDWOOD FALLS  SUNNY     88  74  63 SE12      29.83F HX  96
OLIVIA         SUNNY     88  72  58 SE12G17   29.84F HX  94
PIPESTONE      SUNNY     88  72  58 S12       29.84F HX  94
WINDOM         SUNNY     90  72  55 SE9       29.85F HX  96
WORTHINGTON    SUNNY     86  72  62 SE14      29.85S HX  92
JACKSON        SUNNY     88  73  62 SE13      29.86F HX  96
TRACY          SUNNY     89  75  63 SE12      29.84F HX  99
SLAYTON        SUNNY     87  72  60 SE13      29.85F HX  93
$$
MNZ065>067-074>077-082>085-091>093-032100-
   South Central Minnesota

CITY           SKY/WX    TMP DP  RH WIND       PRES   REMARKS
MANKATO        SUNNY     88  73  62 SE9       29.86F HX  96
NEW ULM        SUNNY     88  73  62 SE8       29.84F HX  96
ST JAMES       SUNNY     90  75  62 SE9       29.85F HX 100
FAIRMONT       SUNNY     88  70  55 SE12      29.85F HX  92
GLENCOE        SUNNY     88  78  71 E12       29.86F HX 100
FARIBAULT      SUNNY     86  75  70 E8        29.88F HX  95
OWATONNA       SUNNY     88  75  66 E7        29.88S HX  97
WASECA         SUNNY     86  72  62 SE8       29.89S HX  92
ALBERT LEA     SUNNY     88  73  62 SE9       29.87F HX  96
$$
MNZ078>079-086>088-094>096-032100-
   Southeast Minnesota

CITY           SKY/WX    TMP DP  RH WIND       PRES   REMARKS
ROCHESTER      MOSUNNY   87  74  64 SE7       29.91F HAZE    HX  95
RED WING       MOSUNNY   82  72  69 SE12      29.89F
STANTON        PTSUNNY   86  74  68 E8        29.87F HX  94
DODGE CENTER   SUNNY     86  73  66 E8        29.90F HX  93
WINONA         PTSUNNY   86  73  66 E5        29.90S HX  93
AUSTIN         SUNNY     88  73  62 SE10      29.89F HX  96
PRESTON        SUNNY     86  71  61 SE8       29.91F HX  92
$$
ABBREVIATIONS USED IN REMARKS
   TC - TEMPERATURES IN CELSIUS
  WCI - WIND CHILL INDEX
   HX - HEAT INDEX
  VSB - VISIBILITY
$$



USA.gov is the U.S. government's official web portal to all federal, state and local government web resources and services.